Regional Weather Roundup
Issued by NWS

Home | Current Version | Previous Version | Graphics & Text | Print | Product List | Glossary On
Versions: 1 2 3 4 5 6 7 8 9 10 11 12 13 14 15 16 17 18 19 20 21 22 23 24 25 26 27 28 29 30 31 32 33 34 35 36 37 38 39 40 41 42 43 44 45 46 47 48 49 50
000
ASUS43 KTOP 231908
RWRKS

WEATHER ROUNDUP FOR KANSAS
NATIONAL WEATHER SERVICE GOODLAND KS
100 PM CST MON JAN 23 2017

NOTE:  "FAIR" INDICATES FEW OR NO CLOUDS BELOW 12,000 FEET WITH NO
SIGNIFICANT WEATHER AND/OR OBSTRUCTIONS TO VISIBILITY.

KSZ001>006-013>018-027>032-041>047-232000-
NORTHWEST KANSAS

CITY           SKY/WX    TMP DP  RH WIND       PRES   REMARKS
GOODLAND       SUNNY     50  29  44 S9        29.59F
HAYS           SUNNY     52  29  41 S24       29.69F
HILL CITY      SUNNY     52  29  41 S22G30    29.66F
RUSSELL        SUNNY     51  31  46 S20       29.71F
$$

KSZ061>065-074>080-084>089-232000-
SOUTHWEST KANSAS

CITY           SKY/WX    TMP DP  RH WIND       PRES   REMARKS
DODGE CITY     SUNNY     52  33  48 S22G29    29.69F
ELKHART          N/A     61  27  27 W16         N/A
GARDEN CITY    SUNNY     50  31  48 SW13      29.67F
GREAT BEND     SUNNY     52  30  43 S20G35    29.72F
LIBERAL          N/A     54  36  50 SW14      29.68F
PRATT          SUNNY     48  28  45 S20G26    29.74F
$$

KSZ066>073-081>083-090>101-232000-
SOUTHEAST KANSAS

CITY           SKY/WX    TMP DP  RH WIND       PRES   REMARKS
CHANUTE        SUNNY     48  33  56 CALM      29.87F
COFFEYVILLE    SUNNY     50  38  63 SE3       29.89F
HUTCHINSON     SUNNY     53  32  44 SE17      29.78F
MEDICINE LODGE   N/A     51  31  46 S20G26    29.75F
NEWTON         SUNNY     50  35  56 S15       29.81F
PARSONS        SUNNY     48  35  60 S5        29.88F
WICHITA INTL   SUNNY     50  35  56 S12       29.82F
WICHITA JABRA  SUNNY     50  34  54 S12       29.82F
WICHITA MCCONL SUNNY     51  32  47 SW15      29.82F
WINFIELD       SUNNY     52  34  50 S8        29.86F
$$

KSZ007>012-019>026-033>040-048>060-102>105-232000-
NORTHEAST KANSAS

CITY           SKY/WX    TMP DP  RH WIND       PRES   REMARKS
CONCORDIA      SUNNY     50  32  50 S10       29.77F
EMPORIA        SUNNY     51  32  48 SW9       29.84F
LAWRENCE       CLOUDY    35  34  96 CALM      29.89F FOG
MANHATTAN      SUNNY     51  33  50 SW6       29.82F
MARYSVILLE     CLOUDY    32  32 100 E8        29.83F FOG
OLATHE IND     CLOUDY    34  34 100 CALM      29.88F FOG
OLATHE EXE     CLOUDY    37  33  85 N5        29.87F FOG
SALINA         SUNNY     52  32  46 S15G21    29.79F
TOPEKA BILLARD CLOUDY    35  33  92 E7        29.87F FOG
TOPEKA FORBES  MOSUNNY   40  34  79 NE7       29.86F
$$




USA.gov is the U.S. government's official web portal to all federal, state and local government web resources and services.